User: anonymous   Login
Location: Unspecified
(0.0000°N, 0.0000°E)
Time: 08:12:09
(UTC+00:00)
Language:

Injun 5 (Explorer 40) - Orbit

View from above orbital plane
View from above orbital plane
View from above satellite
View from above satellite

Ground track
Ground track

The orbit data is extracted from the following two-line orbital elements,

1  3338U 68066B   19345.82451893 -.00000029 +00000-0 -47649-4 0  9992
2  3338 080.6616 105.1014 1132401 130.1583 240.4369 12.22878868287457
Epoch (UTC): 11 December 2019 19:47:18
Eccentricity: 0.1132401
inclination: 80.6616°
perigee height: 679 km
apogee height: 2481 km
right ascension of ascending node: 105.1014°
argument of perigee: 130.1583°
revolutions per day: 12.22878868
mean anomaly at epoch: 240.4369°
orbit number at epoch: 28745

The dashed part of the orbit path shows where the satellite is in the earth's shadow,  

DLR